• In Deutschland
  • Länderverzeichnis
  • Für 7 Tage
  • Wassertemperatur
  • Satellitenkarten
  • Wetterkarte
  • Widgets
  • user-avatar
    Anmelden

    Stündliche Wetter Żagań

    Heute, 11 Dezember, Montag

    Zeit Temperatur Niederschläge Wind Luftdruck Luftfeuchtigkeit
    00:00 +1°C° 0,1 mm 5 m/S 729 mmHg 79%
    01:00 +1°C° 0 mm 6 m/S 729 mmHg 79%
    02:00 +2°C° 0,4 mm 6 m/S 729 mmHg 79%
    03:00 +3°C° 0,4 mm 6 m/S 729 mmHg 78%
    04:00 +3°C° 0,4 mm 6 m/S 729 mmHg 78%
    05:00 +3°C° 0 mm 6 m/S 730 mmHg 78%
    06:00 +3°C° 0 mm 6 m/S 730 mmHg 78%
    07:00 +3°C° 0 mm 6 m/S 731 mmHg 78%
    08:00 +3°C° 0 mm 5 m/S 731 mmHg 77%
    09:00 +3°C° 0 mm 5 m/S 731 mmHg 76%
    10:00 +4°C° 0 mm 4 m/S 731 mmHg 76%
    11:00 +5°C° 0 mm 3 m/S 731 mmHg 75%
    12:00 +5°C° 0 mm 3 m/S 731 mmHg 75%
    13:00 +6°C° 0 mm 2 m/S 731 mmHg 75%
    14:00 +6°C° 0 mm 2 m/S 730 mmHg 78%
    15:00 +4°C° 0 mm 3 m/S 730 mmHg 81%
    16:00 +4°C° 0 mm 3 m/S 729 mmHg 85%
    17:00 +4°C° 0 mm 3 m/S 729 mmHg 85%
    18:00 +5°C° 0 mm 2 m/S 729 mmHg 85%
    19:00 +5°C° 0 mm 2 m/S 728 mmHg 86%
    20:00 +5°C° 0 mm 3 m/S 729 mmHg 84%
    21:00 +5°C° 0 mm 3 m/S 729 mmHg 83%
    22:00 +5°C° 0 mm 3 m/S 730 mmHg 82%
    23:00 +5°C° 0,1 mm 3 m/S 730 mmHg 83%

    Morgen, 12 Dezember, Dienstag

    Zeit Temperatur Niederschläge Wind Luftdruck Luftfeuchtigkeit
    00:00 +5°C° 0,1 mm 3 m/S 731 mmHg 84%
    01:00 +5°C° 0,1 mm 3 m/S 732 mmHg 86%
    02:00 +5°C° 0,1 mm 4 m/S 732 mmHg 85%
    03:00 +5°C° 0,1 mm 4 m/S 733 mmHg 83%
    04:00 +5°C° 0,1 mm 4 m/S 734 mmHg 82%
    05:00 +5°C° 0 mm 5 m/S 734 mmHg 79%
    06:00 +6°C° 0 mm 5 m/S 735 mmHg 75%
    07:00 +5°C° 0 mm 6 m/S 735 mmHg 72%
    08:00 +5°C° 0 mm 7 m/S 736 mmHg 70%
    09:00 +5°C° 0 mm 7 m/S 736 mmHg 67%
    10:00 +5°C° 0 mm 8 m/S 737 mmHg 65%
    11:00 +5°C° 0 mm 8 m/S 738 mmHg 65%
    12:00 +4°C° 0 mm 8 m/S 739 mmHg 65%
    13:00 +3°C° 0 mm 9 m/S 739 mmHg 65%
    14:00 +4°C° 0 mm 8 m/S 741 mmHg 66%
    15:00 +2°C° 0 mm 8 m/S 742 mmHg 68%
    16:00 +2°C° 0 mm 7 m/S 743 mmHg 69%
    17:00 +2°C° 0 mm 7 m/S 744 mmHg 69%
    18:00 +2°C° 0 mm 7 m/S 745 mmHg 69%
    19:00 0°C° 0 mm 7 m/S 746 mmHg 68%
    20:00 +1°C° 0 mm 6 m/S 746 mmHg 71%
    21:00 +1°C° 0 mm 6 m/S 747 mmHg 73%
    22:00 +1°C° 0 mm 6 m/S 748 mmHg 75%
    23:00 +1°C° 0,1 mm 5 m/S 748 mmHg 78%

    übermorgen, 13 Dezember, Mittwoch

    Zeit Temperatur Niederschläge Wind Luftdruck Luftfeuchtigkeit
    00:00 0°C° 0,1 mm 5 m/S 749 mmHg 80%
    01:00 0°C° 0,1 mm 4 m/S 750 mmHg 83%
    02:00 0°C° 0 mm 4 m/S 750 mmHg 84%
    03:00 -1°C° 0 mm 4 m/S 750 mmHg 85%
    04:00 -1°C° 0 mm 4 m/S 751 mmHg 87%
    05:00 -1°C° 0 mm 4 m/S 751 mmHg 86%
    06:00 -1°C° 0 mm 3 m/S 751 mmHg 86%
    07:00 -1°C° 0 mm 3 m/S 751 mmHg 86%
    08:00 -1°C° 0 mm 4 m/S 751 mmHg 81%
    09:00 -1°C° 0 mm 4 m/S 751 mmHg 77%
    10:00 0°C° 0 mm 5 m/S 751 mmHg 72%
    11:00 0°C° 0 mm 5 m/S 751 mmHg 69%
    12:00 +1°C° 0 mm 5 m/S 750 mmHg 65%
    13:00 +2°C° 0 mm 5 m/S 749 mmHg 62%
    14:00 +1°C° 0 mm 5 m/S 749 mmHg 63%
    15:00 0°C° 0 mm 5 m/S 748 mmHg 64%
    16:00 0°C° 0 mm 5 m/S 747 mmHg 66%
    17:00 0°C° 0 mm 5 m/S 747 mmHg 63%
    18:00 -1°C° 0 mm 6 m/S 746 mmHg 61%
    19:00 -1°C° 0 mm 6 m/S 745 mmHg 59%
    20:00 -1°C° 0,3 mm 6 m/S 745 mmHg 60%
    21:00 -1°C° 0,3 mm 7 m/S 744 mmHg 62%
    22:00 -1°C° 0,3 mm 7 m/S 743 mmHg 64%
    23:00 -1°C° 0,1 mm 7 m/S 742 mmHg 67%

    14 Dezember, Donnerstag

    Zeit Temperatur Niederschläge Wind Luftdruck Luftfeuchtigkeit
    00:00 +1°C° 0,1 mm 6 m/S 742 mmHg 70%
    01:00 +1°C° 0,1 mm 6 m/S 741 mmHg 72%
    02:00 +1°C° 0 mm 6 m/S 740 mmHg 73%
    03:00 +2°C° 0 mm 6 m/S 739 mmHg 73%
    04:00 +2°C° 0 mm 6 m/S 739 mmHg 73%
    05:00 +2°C° 0,3 mm 6 m/S 739 mmHg 74%
    06:00 +2°C° 0,3 mm 6 m/S 738 mmHg 75%
    07:00 +3°C° 0,3 mm 6 m/S 738 mmHg 75%
    08:00 +3°C° 0,1 mm 6 m/S 738 mmHg 76%
    09:00 +3°C° 0,1 mm 6 m/S 738 mmHg 77%
    10:00 +4°C° 0,1 mm 6 m/S 738 mmHg 78%
    11:00 +4°C° 0 mm 6 m/S 738 mmHg 76%
    12:00 +5°C° 0 mm 5 m/S 737 mmHg 74%
    13:00 +6°C° 0 mm 5 m/S 737 mmHg 72%
    14:00 +5°C° 0 mm 5 m/S 736 mmHg 73%
    15:00 +5°C° 0 mm 5 m/S 736 mmHg 74%
    16:00 +5°C° 0 mm 5 m/S 735 mmHg 75%
    17:00 +5°C° 0,4 mm 5 m/S 735 mmHg 76%
    18:00 +5°C° 0,4 mm 5 m/S 734 mmHg 76%
    19:00 +4°C° 0,4 mm 6 m/S 733 mmHg 77%
    20:00 +3°C° 0,7 mm 6 m/S 733 mmHg 79%
    21:00 +3°C° 0,7 mm 6 m/S 733 mmHg 80%
    22:00 +2°C° 0,7 mm 6 m/S 733 mmHg 82%
    23:00 +2°C° 0,2 mm 5 m/S 734 mmHg 82%

    15 Dezember, Freitag

    Zeit Temperatur Niederschläge Wind Luftdruck Luftfeuchtigkeit
    00:00 +1°C° 0,2 mm 5 m/S 735 mmHg 81%
    01:00 +1°C° 0,2 mm 4 m/S 736 mmHg 81%
    02:00 0°C° 0 mm 4 m/S 736 mmHg 82%
    03:00 0°C° 0 mm 4 m/S 737 mmHg 83%
    04:00 0°C° 0 mm 4 m/S 737 mmHg 83%
    05:00 -1°C° 0 mm 4 m/S 737 mmHg 84%
    06:00 -1°C° 0 mm 4 m/S 738 mmHg 84%
    07:00 -1°C° 0 mm 4 m/S 738 mmHg 84%
    08:00 -1°C° 0 mm 4 m/S 738 mmHg 80%
    09:00 0°C° 0 mm 4 m/S 738 mmHg 76%
    10:00 0°C° 0 mm 5 m/S 739 mmHg 73%
    11:00 +1°C° 0 mm 4 m/S 738 mmHg 69%
    12:00 +3°C° 0 mm 4 m/S 738 mmHg 66%
    13:00 +3°C° 0 mm 3 m/S 738 mmHg 63%
    14:00 +3°C° 0 mm 3 m/S 738 mmHg 68%
    15:00 +3°C° 0 mm 2 m/S 738 mmHg 73%
    16:00 +2°C° 0 mm 2 m/S 737 mmHg 78%
    17:00 +2°C° 0 mm 2 m/S 738 mmHg 80%
    18:00 +2°C° 0 mm 2 m/S 738 mmHg 82%
    19:00 +2°C° 0 mm 2 m/S 738 mmHg 84%
    20:00 +1°C° 0 mm 2 m/S 738 mmHg 86%
    21:00 +1°C° 0 mm 2 m/S 738 mmHg 88%
    22:00 +1°C° 0 mm 2 m/S 738 mmHg 90%
    23:00 +1°C° 0 mm 2 m/S 739 mmHg 90%

    16 Dezember, Samstag

    Zeit Temperatur Niederschläge Wind Luftdruck Luftfeuchtigkeit
    00:00 +1°C° 0 mm 2 m/S 739 mmHg 91%
    01:00 -1°C° 0 mm 2 m/S 739 mmHg 91%
    02:00 -1°C° 0 mm 2 m/S 739 mmHg 91%
    03:00 -1°C° 0 mm 2 m/S 739 mmHg 91%
    04:00 -1°C° 0 mm 2 m/S 739 mmHg 91%
    05:00 -1°C° 0 mm 2 m/S 739 mmHg 91%
    06:00 -1°C° 0 mm 2 m/S 740 mmHg 90%
    07:00 -1°C° 0 mm 2 m/S 740 mmHg 90%
    08:00 -1°C° 0 mm 2 m/S 740 mmHg 88%
    09:00 0°C° 0 mm 3 m/S 741 mmHg 85%
    10:00 +1°C° 0 mm 3 m/S 741 mmHg 83%
    11:00 +1°C° 0,1 mm 3 m/S 742 mmHg 82%
    12:00 +2°C° 0,1 mm 3 m/S 742 mmHg 82%
    13:00 +2°C° 0,1 mm 3 m/S 742 mmHg 81%
    14:00 +2°C° 0 mm 3 m/S 742 mmHg 83%
    15:00 +1°C° 0 mm 3 m/S 743 mmHg 85%
    16:00 +1°C° 0 mm 3 m/S 743 mmHg 87%
    17:00 0°C° 0 mm 4 m/S 744 mmHg 86%
    18:00 0°C° 0 mm 4 m/S 744 mmHg 86%
    19:00 0°C° 0 mm 4 m/S 745 mmHg 85%
    20:00 0°C° 0 mm 4 m/S 745 mmHg 85%
    21:00 0°C° 0 mm 4 m/S 746 mmHg 84%
    22:00 0°C° 0 mm 4 m/S 746 mmHg 84%
    23:00 -1°C° 0 mm 4 m/S 746 mmHg 85%
    Mehr zeigen